{"data":{"norad_id":64091,"epoch":"2026-05-25T04:09:58.473216Z","epoch_age_seconds":63134,"freshness":"FRESH","line1":"1 64091U 25108E   26145.17359344  .00014290  00000+0  59528-3 0  9997","line2":"2 64091  97.4672 222.1268 0013558  85.7003 274.5783 15.23748654 55949","mean_motion":15.23748654,"eccentricity":0.0013558,"inclination_deg":97.4672,"raan_deg":222.1268,"arg_perigee_deg":85.7003,"mean_anomaly_deg":274.5783,"bstar":0.00059528,"rev_number":5594,"period_min":94.503775030078,"perigee_km":485.22757332744,"apogee_km":503.86353934721,"semimajor_km":6872.6825563373,"source":"CELESTRAK","updated_at":"2026-05-25T13:38:04.235957Z"}}